User: anonymous   Login
Location: Biharia
(46.4333°N, 22.8000°E)
Time: 16:21:49
(UTC+00:00)
Language:

Cosmos 494 Rocket - Orbit

View from above orbital plane
View from above orbital plane
View from above satellite
View from above satellite

Ground track
Ground track

The orbit data is extracted from the following two-line orbital elements,

1  6061U 72043B   22023.18795271  .00000100  00000-0  39380-4 0  9996
2  6061  74.0582 315.1478 0019372  20.1443 340.0473 14.40653647600373
Epoch (UTC): 23 January 2022 04:30:39
Eccentricity: 0.0019372
inclination: 74.0582°
perigee height: 742 km
apogee height: 770 km
right ascension of ascending node: 315.1478°
argument of perigee: 20.1443°
revolutions per day: 14.40653647
mean anomaly at epoch: 340.0473°
orbit number at epoch: 60037

The dashed part of the orbit path shows where the satellite is in the earth's shadow,  

DLR